sat.trackr.live / text

‹ back to catalog

STARLINK-37104

NORAD 68231 · 2026-053AA

PAYLOAD ACTIVE UNKNOWN

§ Identity

Operator
Country
US
Launch date
2026-03-17
Launch site
AFWTR
Launch vehicle
Mass (kg)
RCS (m²)

Purposes: comms

External: N2YO · Heavens-Above · Gunter

§ Orbital elements

Epoch: 2026-09-18T21:46:10.198272Z

Period
93.91 min
Inclination
97.2849°
Eccentricity
0.0002134
Mean motion
15.33443692 rev/d
Perigee alt
464.1 km
Apogee alt
467.0 km
Semi-major
6,843.7 km
B*
5.8055e-4
RAAN
135.7751°
Arg perigee
92.6417°
Mean anomaly
267.5070°
Rev number
2,983

§ Raw data

STARLINK-371041 68231U 26053AA  26261.90706248  .00018714  00000+0  58055-3 0  99952 68231  97.2849 135.7751 0002134  92.6417 267.5070 15.33443692 29838

JSON: /api/v1/satellites/68231 · /tle

For live sub-satellite position, see the globe view (requires WebGL).

§ Visibility from observer

Set your observer location to see the next 7 days of passes ≥ 10°. The values pass through the URL so the page stays shareable.

No JS? Fill the form by hand. The geolocation button needs JavaScript.